Location: Centerville
(32.8776°N, 96.6203°W)
Time: 05:09:58
(UTC+00:00)

Cosmos 1934 Rocket - Pass Details

Date: 17 June 2021
Orbit: 939 x 998 km, 83.0° (Epoch: 29 July)

Event Time Altitude Azimuth Distance (km) Brightness Sun altitude
Rises 03:01:36 0° 350° (N) 3,618 7.9 -15.4°
Reaches altitude 10° 03:04:06 10° 347° (NNW) 2,676 7.1 -15.8°
Maximum altitude 03:10:08 64° 267° (W) 1,057 4.3 -16.7°
Drops below altitude 10° 03:16:13 10° 188° (S) 2,699 6.0 -17.6°
Enters shadow 03:16:24 - 187° (S) 2,768 6.0 -17.6°
